STARLINK-1901 (46762 NORAD) Tracking and Keplerian Element Data

This shows tracking and keplerian element data for the satellite.

Feedback or suggestion? Click here.




ElementValue
Catalog46762
NameSTARLINK-1901
Epoch Orbit180
Epoch Day327.91667824
Epoch Year2020
RAAN16.7861
Inclination53.0572
Eccentricity0.0001243
Argument of Perigee84.9479
Mean Anonmoly125.8995
Mean Motion15.55135307
Decay Rate-0.01090317
L11 46762U 20074Z 20327.91667824 -.01090317 00000-0 -17531-1 0 9996
L22 46762 53.0572 16.7861 0001243 84.9479 125.8995 15.55135307 1802

Live tracking and technical data element details for STARLINK-1901 (NORAD 46762). STARLINK-1901 can be tracked NOW for your location showing map with azimuth and elevation plus other details from your city location.

Track the satellite on the map from your city or location and see movement details for azimuth, elevation, latitude, longitude, range, height, and movement on the map or in text.







IsCatalogInMostPopularTable: catalog: 46762, numindb: 6
Update: records affected: 1



GetName: 46762 STARLINK-1901

Hit Count: updated at: Tue, 24 Nov 2020 12:15:55 GMT